Temp
-8 -8 -7 -8 -7 -7 -7 -6 -6 -5 -5 -3 -2 -1 -0 0 0 1 2 2 2 2 2 2 1 1 0 1 1 1 0 1 1 2 2 2 1 1
-9 -9 -8 -8 -8 -7 -7 -7 -6 -6 -7 -4 -3 -1 -1 -0 0 1 1 2 2 1 2 1 2 1 0 0 0 -0 0 1 1 1 1 1 1 1
-10 -10 -10 -9 -9 -8 -8 -7 -7 -7 -6 -4 -3 -1 -1 -1 -0 -0 1 1 1 1 1 1 1 1 0 0 -0 -1 0 1 1 1 1 1 1 1
-12 -12 -12 -11 -11 -10 -9 -8 -7 -6 -6 -4 -3 -2 -1 -1 -1 -0 0 1 1 1 0 1 1 1 0 -0 -1 -0 1 1 1 1 1 1 1 1
-14 -14 -14 -13 -12 -11 -10 -9 -8 -7 -6 -5 -4 -3 -2 -2 -1 -0 0 1 1 1 1 1 0 0 -0 -1 -1 0 1 1 1 1 1 1 1 1
-14 -14 -14 -14 -14 -13 -11 -10 -8 -7 -6 -5 -4 -3 -2 -2 -1 -1 -0 0 1 1 1 1 0 0 -0 -0 -1 0 1 0 1 1 1 1 1 1
-15 -15 -15 -15 -15 -14 -12 -10 -8 -8 -7 -6 -5 -4 -3 -2 -2 -1 -0 -0 0 0 1 0 -0 0 0 -1 -0 1 1 1 0 0 1 1 1 1
-15 -15 -16 -15 -15 -14 -13 -10 -9 -8 -7 -6 -5 -4 -3 -2 -1 -1 -0 -0 -0 0 1 0 -1 -0 -1 -0 0 1 1 0 -0 0 0 1 1 1
-15 -16 -16 -16 -15 -14 -12 -11 -9 -8 -8 -6 -5 -4 -3 -2 -2 -1 -0 -1 -0 -0 0 1 -0 -0 -1 -1 0 1 0 0 0 -0 0 1 1 1
-15 -15 -15 -15 -15 -13 -12 -10 -9 -8 -7 -7 -6 -4 -3 -2 -2 -1 -1 -1 -0 -0 0 -0 -1 -1 -0 1 0 -0 0 0 -0 -1 -0 1 1 1
-14 -14 -14 -14 -13 -12 -11 -10 -9 -8 -7 -5 -4 -3 -2 -2 -1 -1 -1 -0 -1 0 -0 -0 -1 0 1 1 1 0 0 -0 -1 -1 0 1 1 1
-13 -13 -13 -13 -12 -11 -10 -9 -8 -7 -6 -6 -4 -3 -3 -2 -2 -3 -1 -1 -0 -1 -1 -0 -0 1 1 0 0 -0 -0 -1 -1 -1 0 1 1 1
-12 -11 -12 -11 -11 -11 -10 -9 -8 -7 -6 -5 -4 -3 -3 -2 -2 -2 -1 -1 -1 -0 -0 -0 1 1 2 1 0 0 -0 -1 -1 -1 0 1 1 1
-11 -10 -11 -11 -10 -9 -8 -8 -7 -6 -5 -4 -3 -3 -3 -3 -2 -1 -1 -1 -1 -0 -0 -0 1 2 2 2 1 -0 -0 -1 -1 -1 0 0 0 0
-10 -10 -10 -10 -9 -9 -8 -7 -7 -5 -4 -3 -3 -3 -3 -2 -1 -1 -1 -1 -1 -0 0 0 -0 1 1 2 2 0 -1 -1 -1 -1 -1 -0 -1 -0
-10 -9 -9 -8 -8 -7 -7 -6 -5 -4 -4 -3 -3 -3 -2 -2 -1 -1 -0 -2 -1 -1 -1 -0 -1 -1 -0 -0 0 0 -0 -0 -0 -1 -1 -1 -1 -1
-9 -9 -8 -7 -7 -7 -6 -5 -5 -4 -3 -3 -3 -2 -1 -1 -1 -1 -1 -1 -1 -1 -1 -1 -1 -1 -1 -1 -1 -1 -1 -1 -1 -1 -1 -1 -1 -1
-7 -7 -7 -7 -6 -5 -5 -4 -4 -3 -3 -2 -2 -2 -2 -1 -1 -1 -1 -1 -1 -1 -1 -1 -1 -1 -1 -1 -1 -1 -1 -2 -2 -2 -2 -2 -2 -1
-7 -8 -6 -5 -4 -4 -3 -3 -3 -3 -2 -2 -1 -1 -1 -1 -1 -1 -1 -1 -1 -1 -1 -1 -1 -1 -1 -1 -1 -2 -2 -1 -2 -2 -2 -2 -2 -2
-5 -5 -4 -4 -4 -3 -3 -3 -3 -2 -2 -2 -2 -2 -1 -1 -1 -1 -1 -1 -1 -1 -1 -1 -1 -1 -1 -1 -1 -1 -2 -2 -2 -2 -2 -2 -2 -2
-4 -4 -3 -4 -3 -3 -2 -2 -2 -1 -1 -1 -1 -2 -1 -1 -1 -1 -1 -1 -1 -1 -1 -1 -1 -1 -1 -2 -2 -2 -2 -2 -2 -2 -2 -2 -1 -0
-3 -3 -3 -3 -2 -2 -2 -1 -1 -1 -1 -1 -0 -1 -1 -1 -1 -1 -1 -1 -1 -1 -1 -1 -1 -1 -1 -2 -2 -2 -2 -2 -2 -1 -1 -1 -1 -1
-4 -4 -4 -4 -3 -4 -2 -2 -1 -1 -1 -1 -1 -1 -2 -1 -1 -1 -1 -2 -2 -2 -2 -2 -2 -2 -2 -2 -2 -2 -2 -1 -1 -1 -1 -1 -1 -2
Height
2957 2964 2969 2976 2982 2989 2995 3003 3011 3017 3023 3027 3033 3040 3047 3055 3063 3070 3077 3086 3095 3104 3113 3121 3130 3136 3141 3145 3153 3161 3169 3175 3179 3184 3189 3192 3195 3199
2941 2949 2957 2964 2971 2979 2987 2995 3004 3011 3019 3022 3029 3036 3045 3052 3061 3068 3075 3085 3093 3103 3113 3123 3128 3129 3137 3143 3152 3159 3168 3175 3179 3185 3189 3193 3197 3200
2926 2934 2943 2953 2961 2969 2979 2987 2997 3006 3011 3018 3024 3033 3042 3050 3059 3067 3075 3083 3092 3103 3114 3122 3127 3135 3136 3146 3149 3158 3169 3174 3180 3186 3190 3195 3198 3201
2913 2921 2929 2940 2950 2961 2970 2980 2990 3000 3007 3017 3022 3031 3040 3048 3057 3066 3074 3081 3091 3104 3114 3123 3130 3136 3139 3145 3151 3161 3168 3174 3181 3187 3192 3195 3200 3203
2903 2911 2920 2929 2940 2951 2962 2973 2983 2995 3003 3013 3021 3028 3038 3047 3057 3066 3073 3082 3094 3106 3116 3124 3131 3139 3143 3146 3153 3162 3168 3175 3181 3188 3193 3197 3201 3205
2895 2902 2910 2920 2932 2943 2955 2967 2978 2990 3001 3011 3019 3028 3038 3048 3057 3066 3075 3084 3096 3107 3116 3124 3131 3136 3144 3147 3157 3163 3169 3176 3182 3188 3193 3197 3202 3206
2891 2897 2906 2915 2926 2938 2950 2962 2976 2988 2999 3009 3018 3028 3038 3048 3058 3066 3075 3087 3098 3107 3115 3122 3127 3134 3141 3151 3158 3164 3171 3177 3183 3188 3194 3198 3202 3206
2890 2896 2905 2915 2924 2934 2946 2962 2976 2988 3000 3009 3019 3030 3041 3049 3060 3070 3078 3088 3098 3104 3114 3124 3131 3139 3145 3153 3159 3166 3172 3178 3184 3189 3194 3198 3202 3206
2892 2898 2906 2915 2925 2934 2948 2962 2976 2988 3000 3011 3022 3032 3042 3051 3061 3070 3080 3088 3095 3103 3114 3118 3129 3139 3147 3155 3161 3168 3174 3180 3185 3190 3195 3199 3202 3206
2896 2902 2909 2918 2927 2937 2950 2965 2979 2990 3001 3014 3024 3033 3043 3053 3063 3073 3080 3090 3100 3108 3117 3120 3131 3141 3149 3156 3162 3169 3175 3181 3186 3191 3195 3199 3202 3206
2903 2909 2916 2924 2932 2943 2956 2969 2980 2994 3006 3017 3026 3036 3044 3054 3066 3076 3085 3094 3102 3111 3115 3124 3135 3143 3149 3156 3163 3169 3176 3182 3186 3191 3195 3199 3202 3205
2912 2918 2924 2932 2942 2953 2965 2975 2987 2998 3012 3021 3030 3042 3052 3061 3069 3080 3091 3101 3107 3114 3120 3131 3136 3145 3148 3157 3164 3169 3176 3181 3186 3191 3195 3199 3203 3205
2921 2927 2934 2942 2951 2961 2973 2984 2996 3006 3015 3025 3035 3044 3054 3065 3074 3086 3097 3107 3110 3115 3124 3134 3138 3144 3152 3155 3164 3171 3176 3182 3187 3190 3196 3199 3202 3205
2931 2937 2944 2952 2962 2971 2981 2994 3004 3013 3022 3031 3042 3051 3061 3073 3083 3090 3099 3109 3118 3126 3135 3141 3147 3152 3155 3159 3163 3170 3176 3182 3186 3191 3196 3199 3201 3203
2943 2951 2957 2966 2975 2985 2993 3003 3012 3022 3031 3041 3051 3061 3072 3079 3089 3097 3105 3106 3119 3128 3138 3144 3152 3156 3162 3165 3167 3172 3178 3183 3187 3189 3194 3197 3199 3201
2958 2964 2971 2978 2986 2996 3004 3013 3023 3033 3042 3050 3060 3070 3079 3088 3095 3103 3109 3116 3125 3134 3141 3148 3154 3160 3165 3170 3174 3178 3180 3183 3186 3189 3192 3194 3198 3199
2974 2980 2986 2993 3000 3008 3015 3024 3033 3042 3050 3060 3069 3079 3087 3095 3103 3109 3116 3123 3131 3137 3142 3149 3155 3162 3166 3171 3175 3178 3181 3184 3185 3188 3191 3194 3195 3195
2990 2995 3001 3007 3013 3020 3027 3034 3043 3051 3060 3069 3079 3089 3096 3102 3108 3115 3123 3131 3136 3141 3148 3154 3158 3162 3166 3171 3175 3177 3180 3182 3184 3185 3189 3190 3189 3191
3007 3011 3015 3021 3026 3033 3040 3046 3053 3061 3070 3079 3090 3097 3104 3110 3116 3122 3129 3136 3141 3146 3152 3157 3161 3164 3168 3171 3175 3178 3180 3181 3182 3185 3187 3186 3185 3186
3022 3026 3030 3035 3040 3045 3051 3057 3064 3071 3080 3088 3096 3103 3108 3115 3122 3129 3133 3140 3145 3149 3154 3158 3162 3165 3169 3173 3176 3177 3179 3179 3181 3182 3183 3184 3184 3184
3039 3041 3044 3049 3053 3058 3064 3069 3075 3082 3090 3098 3105 3110 3115 3122 3127 3133 3138 3143 3148 3153 3156 3159 3163 3167 3169 3172 3175 3176 3177 3179 3181 3182 3182 3181 3180 3180
3051 3054 3057 3061 3066 3070 3075 3081 3087 3094 3100 3107 3113 3118 3123 3129 3134 3139 3142 3146 3149 3153 3158 3161 3164 3166 3169 3172 3174 3176 3177 3178 3179 3179 3178 3178 3177 3174
3066 3068 3070 3072 3077 3081 3085 3091 3097 3103 3109 3113 3118 3123 3128 3133 3138 3141 3145 3148 3152 3155 3159 3161 3164 3166 3168 3170 3172 3173 3174 3175 3175 3175 3174 3172 3171 3168
Wind_Speed
43 42 41 39 38 36 37 36 34 32 31 32 35 37 37 35 33 35 38 42 46 47 46 42 41 39 42 41 35 37 31 27 30 29 27 25 24 23
44 44 45 44 42 39 38 38 37 35 28 32 35 37 37 36 34 35 38 42 46 46 45 41 40 30 34 33 31 43 31 29 31 30 29 27 25 24
42 44 46 46 46 44 41 40 40 39 37 36 37 37 36 36 34 34 37 42 46 44 40 43 32 29 19 25 27 43 33 31 33 31 29 27 25 24
35 41 44 47 48 45 44 44 43 42 41 37 35 37 38 36 35 35 37 42 46 47 38 38 35 27 26 16 40 38 33 34 34 31 29 28 25 23
32 36 41 44 47 47 47 47 46 44 43 37 36 38 38 36 35 35 37 42 44 42 41 35 32 28 26 28 41 33 33 36 35 32 29 27 23 21
27 31 35 41 45 46 46 47 48 46 43 39 38 38 37 35 36 35 37 43 43 42 39 36 35 33 24 29 37 33 35 35 35 32 28 25 22 19
22 28 33 35 38 45 47 50 48 46 43 40 38 37 38 37 38 39 43 45 45 41 39 34 38 35 30 40 34 34 35 37 34 31 27 24 21 19
22 27 34 34 37 43 50 49 48 45 42 41 38 39 38 40 40 41 49 51 45 45 42 46 35 28 40 38 34 35 36 36 33 30 26 23 21 18
25 32 36 34 35 40 48 50 48 45 42 40 37 40 41 42 42 49 54 55 56 41 45 42 40 45 40 36 35 36 37 36 32 28 25 22 19 17
27 31 33 37 42 44 50 48 45 43 43 40 40 44 45 44 45 54 57 54 52 46 44 42 44 46 38 40 39 37 36 34 31 28 24 22 19 18
29 32 36 42 45 47 49 47 44 42 41 42 46 47 48 46 50 56 54 53 51 49 40 56 49 46 41 38 38 37 35 33 30 27 25 22 20 19
33 36 35 37 43 45 45 45 45 43 43 46 48 47 45 48 51 52 44 52 42 47 47 42 47 46 43 40 39 39 36 32 30 29 24 22 20 18
35 38 37 43 45 45 43 41 41 45 49 51 52 50 49 51 49 46 51 43 42 42 43 38 46 45 40 43 37 37 35 31 27 26 24 22 20 19
40 40 44 46 44 43 43 42 44 48 50 53 52 51 53 48 48 46 41 42 47 38 33 31 38 36 37 36 38 36 34 32 31 29 24 22 19 18
45 46 47 44 41 41 44 45 46 48 51 50 52 53 50 44 42 40 37 40 38 34 28 25 32 34 29 32 32 36 33 31 27 26 23 22 22 20
49 48 47 46 46 44 45 46 47 48 47 47 50 51 43 46 39 39 35 32 39 35 32 35 26 22 25 28 25 26 26 28 27 26 24 22 20 21
50 49 48 48 47 48 49 49 48 47 45 47 50 46 42 39 38 38 31 31 29 29 33 30 23 23 24 20 20 21 21 20 25 22 21 18 19 19
53 52 51 51 51 52 51 49 48 46 43 45 48 42 36 38 32 35 36 35 25 27 30 27 24 21 20 20 19 21 25 19 19 21 19 19 15 17
51 49 47 50 52 51 49 48 46 44 45 53 48 37 34 41 32 34 37 30 25 32 26 21 19 15 17 27 17 21 14 18 19 11 12 10 10 13
47 47 47 48 49 48 47 45 44 45 45 44 41 29 26 36 33 29 28 30 28 28 22 17 12 11 13 12 13 20 17 9 13 10 8 11 16 21
38 40 43 42 41 41 43 45 45 44 42 39 34 28 32 39 32 26 21 25 22 26 25 15 17 16 15 14 19 14 6 9 12 14 17 18 21 24
42 40 40 40 41 40 42 45 45 43 39 36 31 30 30 29 28 23 24 19 22 27 21 16 16 13 14 13 12 9 10 10 13 16 18 21 23 25
40 41 38 39 45 43 44 46 45 42 32 29 30 26 24 24 22 16 18 20 19 20 20 20 22 16 13 14 10 10 11 12 15 17 20 20 22 22
Wind_Direction
236 237 239 239 236 232 225 218 212 211 215 209 202 203 200 198 199 196 194 192 190 191 192 193 193 204 211 185 198 205 177 180 173 172 172 163 159 151
234 232 230 230 231 228 224 215 211 203 210 208 203 199 197 196 196 195 192 190 189 188 191 185 191 200 194 180 204 172 181 180 175 173 170 164 160 154
232 229 225 222 225 222 216 213 208 206 202 204 199 197 194 194 192 192 188 189 186 184 185 193 194 197 188 201 196 162 176 179 176 173 171 165 160 158
227 222 219 215 217 217 213 208 204 204 204 203 198 192 193 190 189 187 185 187 184 181 181 183 194 183 191 202 174 163 175 176 174 172 172 166 165 161
220 216 213 209 209 209 209 204 200 199 201 198 197 189 190 186 184 183 181 182 179 178 179 181 178 187 198 175 155 170 174 174 174 172 171 166 166 165
213 211 210 206 203 201 199 199 195 194 194 193 193 189 184 179 178 176 175 175 171 172 178 175 184 183 194 166 165 174 174 173 173 172 169 166 167 169
194 191 190 186 192 195 193 192 188 188 188 189 189 181 178 173 174 171 167 165 164 164 166 170 190 176 190 165 169 173 173 173 173 171 167 167 169 173
173 172 179 182 182 184 186 183 182 181 183 185 184 175 171 170 171 165 162 161 160 166 169 171 176 183 159 164 173 171 172 172 173 170 168 171 174 176
164 162 164 168 174 176 173 173 174 175 179 180 174 166 168 166 167 163 164 165 173 165 174 172 176 168 164 168 169 171 171 172 172 168 170 173 173 175
149 157 163 159 156 161 164 165 168 170 173 170 165 162 166 164 167 164 168 169 166 165 177 164 166 163 165 168 168 169 171 170 172 169 172 173 174 177
139 141 148 154 153 153 155 156 159 166 167 167 159 163 163 164 164 164 169 176 168 168 172 170 163 163 166 168 168 169 171 173 172 170 174 177 178 180
135 137 143 149 145 146 148 154 158 155 156 154 157 160 159 161 164 165 169 169 177 161 162 164 163 168 163 169 171 170 171 175 177 172 179 180 184 187
136 134 136 140 142 144 146 147 147 150 152 153 156 160 160 163 166 163 168 170 166 167 171 172 170 173 174 168 171 173 176 179 179 172 182 186 191 197
134 136 134 134 136 140 139 139 144 148 152 154 157 157 156 154 161 163 168 170 171 166 166 170 178 176 173 171 173 177 180 181 181 180 187 192 200 208
130 130 128 128 127 130 134 138 143 148 151 154 156 154 155 155 157 160 161 171 170 181 173 171 183 178 183 188 183 182 184 186 189 181 192 200 207 222
121 125 128 129 127 130 131 136 142 146 151 153 154 153 149 160 163 159 158 156 170 171 174 173 171 178 188 193 193 190 192 189 193 199 201 207 221 231
118 120 122 123 125 129 133 137 141 145 150 151 155 154 155 160 162 165 158 154 162 171 171 179 172 170 174 186 196 197 204 224 209 198 205 219 231 240
120 120 123 126 129 130 131 134 138 142 146 150 153 156 154 152 154 156 163 166 164 171 160 164 164 175 188 185 203 220 212 202 205 191 218 230 241 250
118 117 121 125 126 127 130 134 137 139 143 146 141 135 148 156 142 157 160 169 172 170 167 157 161 166 171 193 207 205 219 211 207 208 247 247 254 279
116 118 121 124 127 131 133 135 134 137 142 150 156 143 143 153 153 150 160 162 166 159 168 178 168 163 181 200 216 218 233 212 206 243 266 283 288 288
109 116 120 124 129 133 134 134 134 136 139 142 148 144 146 156 154 150 150 160 169 176 173 158 157 169 171 192 217 249 229 213 230 265 286 293 294 292
109 115 116 121 125 127 128 128 129 131 137 145 146 141 140 146 165 168 171 188 179 187 167 180 184 186 181 178 197 216 224 241 274 286 286 284 284 288
106 111 111 121 123 122 129 134 133 133 129 131 143 142 145 147 159 169 160 163 162 177 186 187 184 184 197 214 221 238 265 275 275 285 283 283 286 292